Hillsdale, MI

5:42 PM EDT on July 21, 2017 (GMT -0400)
Hillsdale Municipal

Weather History for KJYM - October, 2011

Change the Weather History Date:

Friday, October 21, 2011

  Actual Average Record
Temperature  
Mean Temperature 44 °F -  
Max Temperature 46 °F 56 °F 85 °F (1953)
Min Temperature 42 °F 36 °F 15 °F (1952)
Degree Days  
Heating Degree Days 21    
Moisture  
Dew Point 40 °F    
Average Humidity 84    
Maximum Humidity 93    
Minimum Humidity 71    
Precipitation  
Precipitation 0.00 in - - ()
Sea Level Pressure  
Sea Level Pressure 29.93 in    
Wind  
Wind Speed 10 mph (WNW)    
Max Wind Speed 14 mph    
Max Gust Speed 20 mph    
Visibility 10 miles    
Events      
Averages and records for this station are not official NWS values.
T = Trace of Precipitation, MM = Missing Value Source: NWS Daily Summary

Daily Weather History Graph

Daily Weather History Graph

Search for Another Location

Airport or City:

Trip Planner

Search our weather history database for the weather conditions in past years. The results will help you decide how hot, cold, wet, or windy it might be!

Date:

Astronomy

Oct. 21, 2011 Rise Set
Actual Time 7:57 AM EDT 6:47 PM EDT
Civil Twilight 7:29 AM EDT 7:16 PM EDT
Nautical Twilight 6:56 AM EDT 7:48 PM EDT
Astronomical Twilight 6:24 AM EDT 8:21 PM EDT
Moon 1:40 AM EDT 3:36 PM EDT
Length of Visible Light 11h 47m
Length of Day
10h 50m
Waning Crescent, 34% of the Moon is Illuminated
Oct 21
Waning Crescent
Oct 26
New
Nov 2
First Quarter
Nov 10
Full
Nov 18
Last Quarter

Hourly Weather History & Observations

Time (EDT) Temp. Windchill Dew Point Humidity Pressure Visibility Wind Dir Wind Speed Gust Speed Precip Events Conditions
12:15 AM 42.8 °F 36.6 °F 41.0 °F 93% 29.74 in 10.0 mi WNW 11.5 mph 17.3 mph N/A   Overcast
12:35 AM 42.8 °F 36.6 °F 41.0 °F 93% 29.75 in 10.0 mi West 11.5 mph - N/A   Overcast
12:55 AM 42.8 °F 36.2 °F 39.2 °F 87% 29.75 in 10.0 mi WNW 12.7 mph - N/A   Overcast
1:15 AM 42.8 °F 36.6 °F 41.0 °F 93% 29.76 in 10.0 mi WNW 11.5 mph - N/A   Overcast
1:35 AM 42.8 °F 37.0 °F 41.0 °F 93% 29.77 in 5.0 mi WNW 10.4 mph 19.6 mph N/A   Overcast
2:15 AM 42.8 °F 38.0 °F 41.0 °F 93% 29.78 in 10.0 mi WNW 8.1 mph - N/A   Overcast
2:35 AM 42.8 °F 38.6 °F 41.0 °F 93% 29.79 in 10.0 mi WNW 6.9 mph - N/A   Overcast
2:55 AM 42.8 °F 36.6 °F 41.0 °F 93% 29.80 in 10.0 mi WNW 11.5 mph - N/A   Overcast
3:15 AM 42.8 °F 38.0 °F 41.0 °F 93% 29.80 in 10.0 mi WNW 8.1 mph - N/A   Overcast
3:35 AM 42.8 °F 37.0 °F 41.0 °F 93% 29.81 in 10.0 mi WNW 10.4 mph - N/A   Overcast
3:55 AM 42.8 °F 38.6 °F 41.0 °F 93% 29.82 in 10.0 mi West 6.9 mph - N/A   Overcast
4:15 AM 42.8 °F 37.5 °F 41.0 °F 93% 29.83 in 10.0 mi WNW 9.2 mph - N/A   Overcast
4:35 AM 44.6 °F 39.7 °F 41.0 °F 87% 29.83 in 10.0 mi West 9.2 mph - N/A   Overcast
4:55 AM 44.6 °F 39.7 °F 41.0 °F 87% 29.84 in 10.0 mi WNW 9.2 mph - N/A   Overcast
5:15 AM 44.6 °F 39.2 °F 39.2 °F 81% 29.85 in 10.0 mi WNW 10.4 mph - N/A   Overcast
5:35 AM 44.6 °F 39.7 °F 39.2 °F 81% 29.86 in 10.0 mi WNW 9.2 mph - N/A   Overcast
5:55 AM 44.6 °F 39.7 °F 41.0 °F 87% 29.87 in 10.0 mi West 9.2 mph - N/A   Overcast
6:15 AM 44.6 °F 40.2 °F 41.0 °F 87% 29.88 in 10.0 mi West 8.1 mph - N/A   Overcast
6:35 AM 44.6 °F 39.7 °F 41.0 °F 87% 29.89 in 10.0 mi WNW 9.2 mph - N/A   Overcast
6:55 AM 44.6 °F 40.2 °F 41.0 °F 87% 29.90 in 10.0 mi West 8.1 mph - N/A   Overcast
7:15 AM 44.6 °F 39.2 °F 39.2 °F 81% 29.90 in 10.0 mi WNW 10.4 mph - N/A   Overcast
7:35 AM 44.6 °F 40.2 °F 39.2 °F 81% 29.91 in 10.0 mi WNW 8.1 mph - N/A   Overcast
7:55 AM 42.8 °F 38.6 °F 39.2 °F 87% 29.92 in 10.0 mi WNW 6.9 mph - N/A   Overcast
8:15 AM 42.8 °F 40.1 °F 41.0 °F 93% 29.93 in 10.0 mi WNW 4.6 mph - N/A   Overcast
8:35 AM 44.6 °F 41.4 °F 41.0 °F 87% 29.94 in 10.0 mi West 5.8 mph - N/A   Overcast
8:55 AM 44.6 °F 40.7 °F 42.8 °F 93% 29.95 in 10.0 mi West 6.9 mph - N/A   Overcast
9:15 AM 44.6 °F 40.7 °F 42.8 °F 93% 29.96 in 10.0 mi WNW 6.9 mph - N/A   Overcast
9:35 AM 44.6 °F 40.2 °F 42.8 °F 93% 29.97 in 10.0 mi West 8.1 mph - N/A   Overcast
9:55 AM 44.6 °F 39.2 °F 42.8 °F 93% 29.97 in 10.0 mi West 10.4 mph - N/A   Overcast
10:15 AM 44.6 °F 39.7 °F 41.0 °F 87% 29.98 in 10.0 mi WNW 9.2 mph 16.1 mph N/A   Overcast
10:35 AM 46.4 °F 40.7 °F 41.0 °F 81% 29.99 in 10.0 mi NW 12.7 mph - N/A   Overcast
10:50 AM 44.6 °F 38.8 °F 41.0 °F 87% 29.99 in 10.0 mi WNW 11.5 mph - N/A   Overcast
11:15 AM 46.4 °F 41.5 °F 41.0 °F 81% 29.99 in 10.0 mi WNW 10.4 mph - N/A   Overcast
11:34 AM 46.4 °F 41.1 °F 41.0 °F 81% 29.99 in 10.0 mi WNW 11.5 mph - N/A   Overcast
11:55 AM 46.4 °F 41.5 °F 41.0 °F 81% 30.00 in 10.0 mi WNW 10.4 mph - N/A   Overcast
12:14 PM 46.4 °F 40.4 °F 39.2 °F 76% 30.00 in 10.0 mi NW 13.8 mph 18.4 mph N/A   Overcast
12:34 PM 46.4 °F 40.7 °F 39.2 °F 76% 30.00 in 10.0 mi West 12.7 mph - N/A   Overcast
12:55 PM 46.4 °F 41.5 °F 41.0 °F 81% 30.00 in 10.0 mi WNW 10.4 mph - N/A   Overcast
1:14 PM 46.4 °F 41.5 °F 41.0 °F 81% 30.00 in 10.0 mi WNW 10.4 mph - N/A   Overcast
1:34 PM 46.4 °F 42.9 °F 41.0 °F 81% 30.00 in 10.0 mi WNW 6.9 mph - N/A   Overcast
1:55 PM 46.4 °F 41.9 °F 41.0 °F 81% 30.00 in 10.0 mi WNW 9.2 mph 17.3 mph N/A   Overcast
2:15 PM 46.4 °F 41.5 °F 41.0 °F 81% 30.00 in 10.0 mi WNW 10.4 mph - N/A   Overcast
2:34 PM 46.4 °F 40.7 °F 39.2 °F 76% 30.01 in 10.0 mi West 12.7 mph - N/A   Overcast
2:55 PM 46.4 °F 41.1 °F 39.2 °F 76% 30.01 in 10.0 mi WNW 11.5 mph - N/A   Overcast
3:14 PM 46.4 °F 41.5 °F 39.2 °F 76% 30.01 in 10.0 mi West 10.4 mph - N/A   Overcast
3:34 PM 46.4 °F 42.4 °F 41.0 °F 81% 30.02 in 10.0 mi West 8.1 mph - N/A   Overcast
3:55 PM 46.4 °F 42.4 °F 41.0 °F 81% 30.02 in 10.0 mi West 8.1 mph - N/A   Overcast
4:14 PM 46.4 °F 41.5 °F 39.2 °F 76% 30.02 in 10.0 mi West 10.4 mph - N/A   Overcast
4:35 PM 46.4 °F 42.9 °F 39.2 °F 76% 30.03 in 10.0 mi West 6.9 mph - N/A   Overcast
4:55 PM 46.4 °F 42.4 °F 39.2 °F 76% 30.03 in 10.0 mi West 8.1 mph - N/A   Overcast
5:14 PM 46.4 °F 41.9 °F 39.2 °F 76% 30.03 in 10.0 mi West 9.2 mph - N/A   Overcast
5:35 PM 46.4 °F 41.9 °F 39.2 °F 76% 30.03 in 10.0 mi West 9.2 mph - N/A   Overcast
5:55 PM 46.4 °F 42.4 °F 39.2 °F 76% 30.04 in 10.0 mi West 8.1 mph - N/A   Overcast
7:14 PM 46.4 °F 42.9 °F 37.4 °F 71% 30.05 in 10.0 mi West 6.9 mph - N/A   Overcast
7:35 PM 44.6 °F 42.2 °F 37.4 °F 76% 30.06 in 10.0 mi West 4.6 mph - N/A   Overcast
7:54 PM 44.6 °F 42.2 °F 37.4 °F 76% 30.06 in 10.0 mi WNW 4.6 mph - N/A   Overcast
8:14 PM 44.6 °F 41.4 °F 37.4 °F 76% 30.07 in 10.0 mi WNW 5.8 mph - N/A   Overcast
8:35 PM 44.6 °F 41.4 °F 37.4 °F 76% 30.07 in 10.0 mi West 5.8 mph - N/A   Overcast
8:54 PM 44.6 °F 40.7 °F 37.4 °F 76% 30.08 in 10.0 mi West 6.9 mph - N/A   Overcast
9:15 PM 44.6 °F 39.7 °F 37.4 °F 76% 30.08 in 10.0 mi West 9.2 mph - N/A   Overcast
9:34 PM 44.6 °F 40.7 °F 37.4 °F 76% 30.08 in 10.0 mi West 6.9 mph - N/A   Overcast
9:54 PM 44.6 °F 40.7 °F 37.4 °F 76% 30.08 in 10.0 mi West 6.9 mph - N/A   Overcast
10:15 PM 44.6 °F 39.7 °F 37.4 °F 76% 30.08 in 10.0 mi WNW 9.2 mph - N/A   Overcast
10:54 PM 41.0 °F - 35.6 °F 81% 30.08 in 10.0 mi Calm Calm - N/A   Clear
11:15 PM 37.4 °F - 33.8 °F 87% 30.08 in 10.0 mi Calm Calm - N/A   Clear
11:34 PM 35.6 °F - 33.8 °F 93% 30.07 in 10.0 mi Calm Calm - N/A   Clear
11:54 PM 37.4 °F - 35.6 °F 93% 30.07 in 10.0 mi Calm Calm - N/A   Clear